Regional Weather Roundup
Issued by NWS

Home | Current Version | Previous Version | Text Only | Print | Product List | Glossary Off
Versions: 1 2 3 4 5 6 7 8 9 10 11 12 13 14 15 16 17 18 19 20 21 22 23 24 25 26 27 28 29 30 31 32 33 34 35 36 37 38 39 40 41 42 43 44 45 46 47 48 49 50

000
ASUS43 KLSX 010807
RWRMO

WEATHER SUMMARY FOR MISSOURI
NATIONAL WEATHER SERVICE SPRINGFIELD MO
300 AM CDT WED OCT 01 2014

NOTE: "FAIR" INDICATES FEW OR NO CLOUDS BELOW 12,000 FEET WITH NO
       SIGNIFICANT WEATHER AND/OR OBSTRUCTIONS TO VISIBILITY.
       CURRENT SKY AND/OR WEATHER CONDITIONS ARE NOT AVAILABLE FOR
       CHILLICOTHE AND FARMINGTON.

MOZ001>031-035>038-043-044-053-054-010900-
...NORTHERN AND WESTERN MISSOURI...

CITY           SKY/WX    TMP DP  RH WIND       PRES   REMARKS
KANSAS CTY INT CLOUDY    69  61  75 S14       29.75F
KANSAS C DTWN  MOCLDY    72  60  66 S13G23    29.76F
LEE`S SUMMIT   MOCLDY    68  59  73 S14       29.78F
ST JOSEPH      CLOUDY    69  63  81 SE8       29.74F
CHILLICOTHE      N/A     69  59  70 SE7       29.81S
KIRKSVILLE     MOCLDY    61  32  33 SE8       29.85F

$$
MOZ066>068-077>081-088>096-101>105-010900-
...SOUTHWEST MISSOURI...

CITY           SKY/WX    TMP DP  RH WIND       PRES   REMARKS
SPRINGFIELD    CLEAR     66  55  67 S12       29.85R
JOPLIN         CLEAR     69  59  70 S10       29.81S

$$
MOZ032>034-039>042-045>050-055>058-069>072-010900-
...CENTRAL MISSOURI...

CITY           SKY/WX    TMP DP  RH WIND       PRES   REMARKS
COLUMBIA       CLEAR     64  56  75 SE7       29.86S
JEFFERSON CITY CLEAR     61  55  81 E3        29.85S
ROLLA          CLEAR     65  52  62 SE10      29.86F
SEDALIA        PTCLDY    66  55  67 S7        29.84S
WHITEMAN AFB   PTCLDY    65  56  73 S8        29.81F
OSAGE BEACH    CLEAR     63  52  67 S5        29.86S

$$
MOZ051-052-059>065-010900-
...EAST CENTRAL MISSOURI...

CITY           SKY/WX    TMP DP  RH WIND       PRES   REMARKS
ST LOUIS INTL  CLEAR     66  60  81 E8        29.90F
SPIRIT OF STL  CLEAR    N/A N/A N/A CALM      29.88S
ST CHARLES     CLEAR     61  58  90 E7        29.90S

$$
MOZ072>076-082>087-097>100-106>115-010900-
...SOUTH CENTRAL AND SOUTHEAST MISSOURI...

CITY           SKY/WX    TMP DP  RH WIND       PRES   REMARKS
CAPE GIRARDEAU CLEAR     57  55  93 SE3       29.89F
FARMINGTON     CLEAR     55  52  88 CALM      29.92S
POPLAR BLUFF   CLEAR     58  55  90 CALM      29.88S
WEST PLAINS    CLEAR     59  53  80 SE3       29.91S

$$


USA.gov is the U.S. government's official web portal to all federal, state and local government web resources and services.